COSMOS 2251 DEB, 34413

Orbit data source: Space-Track

COSMOS 2251 DEB, 34413 is space debris in LEO originally from a launch on Wed, 16 Jun 1993 UTC launched from the Plesetsk Missile And Space Complex (PKMTR). The debris from Iridium 33, an American commercial communications satellite, has been tracked extensively since its accidental collision with the defunct Russian satellite Cosmos 2251 in 2009. This event, occurring at high speed in low Earth orbit (LEO), generated thousands of pieces of space debris, significantly increasing the risk of further collisions. The Iridium 33 debris cloud has impacted space traffic management and orbital debris mitigation strategies, making it a subject of ongoing study in space situational awareness.

Loading next visibility...
Identifier
34413, 1993-036RE
Orbit
LEO
Country
Flag of CISCIS
Related business
Manufacturer
Unknown
Mission
Spacecraft
Bus & Motor
Unknown
Mass
Unknown
Launch date (UTC)
1993-06-16 (33 years ago)
Launch vehicle
Unknown
Launch site
Plesetsk Missile And Space Complex (PKMTR)
Object type
Payload
Rocket body
Debris
Shape & HBR
Unknown shape, 0.1 m
Radar Cross Section
Medium (>0.1 m² and <1 m²)

Expand to show TLE details & history
Last TLE update: 16 hours ago

TLE from 16 hours ago
0 COSMOS 2251 DEB
1 34413U 93036RE  26162.78645562  .00001816  00000-0  67934-3 0  9994
2 34413  74.0304 295.7049 0090549 331.9207 149.3876 14.30265103897189
Epoch: 2026-06-11T18:52Z
TLE epoch observation values (Epoch: 2026-06-11T18:52:29.765Z)
Latitude
54.87428°
Longitude
-91.41361°
Altitude
855.595 km
Speed
7.401 km/s
True Right ascension
06h 07m 20s
True Declination
54° 42' 52"
Sunlit
Object was in daylight at epoch
Visualization orbit readout
Latitude
Unknown
Longitude
Unknown
Altitude
Unknown
Speed
Unknown
Apparent Right ascension
Unknown
Apparent Declination
Unknown
Sunlit
N/A
Visualization observer readout
Local Sidereal Time
21:00:45
Azimuth
Unknown
Elevation
Unknown
Doppler factor
Unknown
Orbital elements
Apogee altitude
853.368 km
Perigee altitude
723.582 km
Semi-major axis
7,166.612 km
Eccentricity
0.00905
Inclination
74.0304°
RAAN
295.7049°
Arg. of periapsis
331.9207°
True anomaly
149.91088°
Mean anomaly
149.3876°
Eccentric anomaly
149.64975°
Mean motion
3.57744 °/min
Orbital period
100.63 mins
BSTAR
0.00067934

Documentation

Showing up to 5 results
|